Showing default

HODOYOSHI 1, 40299

Orbit data source: Space-Track

HODOYOSHI 1, 40299 is a Japanese payload satellite in LEO that was launched on Thu, 06 Nov 2014 UTC via a DNEPR launch vehicle from the Orenburg, Russia (OREN). Payloads include a variety of satellites, spacecraft, and rockets equipped with specific instruments for various scientific and technological missions. These include communications satellites like Starlink; space stations such as the ISS; scientific satellites like the Hubble; Earth observation satellites from companies like Planet Labs, Umbra, and HawkEye 360; GPS; miniature CubeSats for education and research; and military/defense satellites.

Loading next visibility...
HODOYOSHI 1 details
Identifier
40299, 2014-070B
Orbit
LEO
Last TLE update10 hours ago
Origin
Flag of JPAXEL/TOK (JP / JPN)
ManufacturerAXELSPACE
MissionOperational Commercial Imaging
Bus & MotorHODOYOSHI, Unknown motor
Mass50 kg wet, 50 kg dry
Launch date (UTC)
2014-11-06 (10 years ago)
Launch vehicle
DNEPR
Launch site
Orenburg, Russia (OREN)
Object type
Payload
Rocket body
Debris
Shape & HBRBox + 2 Pan, 1.5 m
Radar Cross Section0.614 m², Medium (>0.1 m² and < 1m²)

Expand to show TLE details & history

TLE from 10 hours ago
0 HODOYOSHI 1
1 40299U 14070B   24336.86999561  .00104144  00000-0  89133-3 0  9998
2 40299  97.1121  36.7144 0005386 134.5505 225.6198 15.69106702561188
Epoch: 2024-12-01T20:52Z
Definitive object data (Epoch: 2024-12-01T20:52:47.62Z)
Latitude-0.00004°
Longitude12.31398°
Altitude367.159 km
Speed7.688 km/s
True Right ascension02h 26m 51s
True Declination0° 00' 00"
Sunlit
Object was in full shadow at TLE epoch
Visualization TLE readout
Latitude-50.76571°
Longitude21.49762°
Altitude384.613 km
Speed7.676 km/s
Apparent Right ascension21h 12m 23s
Apparent Declination-74° 40' 56"
Sunlit
Object is in daylight
Visualization observer readout
Local Sidereal Time05:08:36
Azimuth199.355° SSW
Elevation-45.829°
Doppler factor1
Orbital elements
Apogee altitude361.97 km
Perigee altitude354.714 km
Semi-major axis6,736.479 km
Eccentricity0.0005386
Inclination97.1121°
RAAN36.7144°
Arg. of periapsis134.5505°
True anomaly225.57571°
Mean anomaly225.6198°
Eccentric anomaly225.59775°
Mean motion3.92549 °/min
BSTAR0.00089133
Orbital period91.71 mins
Loading maneuver chart data...
Loading historical data...
Loading historical data...
Loading historical data...
Loading historical data...
Loading historical data...
Loading historical data...
Loading historical data...

HODOYOSHI 1 Visibility forecast

Observer location: undefined°, undefined

Span
Click to sort rows by Start time (UTC) header in descending order
Start Az.
Max El. time (UTC)
Max El. Az.
Max El.
End time (UTC)
End Az.
5 mins2024-12-02 17:19:32.678Z357.455° N2024-12-02 17:21:32.678Z315.221° NNW33.272°2024-12-02 17:24:32.678Z210.709° SW
|